Location: Newark
(42.7133°N, 87.7910°W)
Time: 03:53:59
(UTC+00:00)

Tiros 1 - Pass Details

Date: 29 September 2019
Orbit: 630 x 664 km, 48.4° (Epoch: 19 October)

Event Time Altitude Azimuth Distance (km) Brightness Sun altitude
Rises 17:47:03 0° 277° (W) 2,983 10.5 44.8°
Reaches altitude 10° 17:49:31 10° 285° (WNW) 2,066 9.8 44.7°
Maximum altitude 17:54:03 42° 356° (N) 936 8.0 44.7°
Drops below altitude 10° 17:58:32 10° 68° (ENE) 2,046 9.6 44.6°
Sets 18:00:58 0° 75° (ENE) 2,950 10.4 44.6°
